This is the latest recevied weather packets stored in our database for station/object SP2JGY-2. If no packets are shown the sender has not sent any weather packets the latest 10 day(s).
| Time | Temp. | Humidity | Pressure | Rain* | Wind** | Luminosity | Snow |
|---|---|---|---|---|---|---|---|
| 1777433938 | -1.11° C | 81% | 1029.5 hPa | - | - | - | - |
| 1777433038 | -1.11° C | 81% | 1029.4 hPa | - | - | - | - |
| 1777432138 | -1.67° C | 79% | 1029.3 hPa | - | - | - | - |
| 1777431238 | -1.11° C | 80% | 1029.2 hPa | - | - | - | - |
| 1777430338 | -1.11° C | 82% | 1029.2 hPa | - | - | - | - |
| 1777429438 | -1.11° C | 80% | 1029.2 hPa | - | - | - | - |
| 1777428537 | -1.11° C | 83% | 1029.2 hPa | - | - | - | - |
| 1777427637 | -0.56° C | 81% | 1029.2 hPa | - | - | - | - |
| 1777426737 | -0.56° C | 81% | 1029.2 hPa | - | - | - | - |
| 1777425837 | -0.56° C | 81% | 1029.2 hPa | - | - | - | - |
| 1777424937 | 0° C | 82% | 1029.2 hPa | - | - | - | - |
| 1777424037 | 0° C | 81% | 1029.2 hPa | - | - | - | - |
| 1777423136 | -0.56° C | 79% | 1029.2 hPa | - | - | - | - |
| 1777422236 | -0.56° C | 80% | 1029.3 hPa | - | - | - | - |
| 1777421336 | -0.56° C | 77% | 1029.3 hPa | - | - | - | - |
| 1777420438 | 0° C | 77% | 1029.2 hPa | - | - | - | - |
| 1777419536 | 0° C | 75% | 1029.2 hPa | - | - | - | - |
| 1777418636 | 0.56° C | 75% | 1029.2 hPa | - | - | - | - |
| 1777417735 | 0.56° C | 73% | 1029.1 hPa | - | - | - | - |
| 1777416835 | 0.56° C | 70% | 1029 hPa | - | - | - | - |
| 1777415935 | 1.11° C | 70% | 1028.9 hPa | - | - | - | - |
| 1777415035 | 1.11° C | 64% | 1029 hPa | - | - | - | - |
| 1777414135 | 1.67° C | 66% | 1028.8 hPa | - | - | - | - |
| 1777413235 | 2.22° C | 64% | 1028.6 hPa | - | - | - | - |
| 1777412334 | 2.22° C | 62% | 1028.6 hPa | - | - | - | - |
* Rain since midnight (hover to see other rain measurements)
** Current wind speed in m/s (hover to see current wind gust speed)